Tracking 20232 objects as of 21-Jan-2020
HD Live streaming from Space Station
objects crossing your sky now

SL-8 DEB

Track SL-8 DEB now!
10-day predictions


NORAD ID: 21955
Int'l Code: 1991-009CF
Perigee: 1,523.8 km
Apogee: 1,780.8 km
Inclination: 74.3 °
Period: 119.2 minutes
Semi major axis: 8023 km
RCS: 0.0532 m2 (small)
Launch date: February 12, 1991
Source: Commonwealth of Independent States (former USSR) (CIS)
Launch site: PLESETSK MISSILE AND SPACE COMPLEX (PKMTR)

Note: This is SATELLITE DEBRIS
aabbcc
Your satellite tracking list
Your tracking list is empty




NASA's NSSDC Master Catalog

Two Line Element Set (TLE):
1 21955U 91009CF  20020.45505553 +.00000258 +00000-0 +29225-2 0  9994
2 21955 074.2984 035.7002 0160179 121.4045 028.6892 12.08011088272708
Source of the keplerian elements: AFSPC